Content
SEND FEEDBACK

Daily
Averages
Monthly
Summary
United States of America

NEWKIRK, NEW MEXICO


Home > North America > United States > New Mexico
Elevation: 4587 feet     Latitude: 35 04N     Longitude: 104 16W

WEATHER
 
SELECT A DAY
Number of Records: 147,619;   Date Range: 1/2/95 - 4/22/14
 
SHARE

PRINT THIS DATA

[ ← Previous Day ]
WEATHER ALMANAC - JANUARY 19, 2013
[ Next Day → ]
[ °C ]   °F
Weather ElementAverageHighLow
Temperature45 °F64 °F (1:53 pm)28.9 °F (6:53 am)
Dewpoint13.8 °F19.9 °F (1:53 am)5 °F (2:53 pm)
Humidity35 %64 % (3:53 am)10 % (2:53 pm)
Barometer30.16 in30.26 in (7:53 pm)30.04 in (2:53 am)
Wind Speed8.9 mph17.3 mph (12:53 pm)
Wind Gust23 mph (12:53 pm)
Weather ElementAverage
Visibility10 mi
Wind DirectionSSE (158.6 °)

Weather ElementTotal
Precipitation---
Heating Degree Days18.6 (Base 65)
Averaged from 22 records on January 19, 2013
WEATHER CONDITIONS BREAKOUT
WIND DIRECTION BREAKOUT
WEATHER BY HOUR - JANUARY 19, 2013
[ °C ]   °F
Local TimeTemperatureDewpointHumidityBarometerVisibilityWind DirectionWind SpeedGust SpeedPrecipitationEventsConditions
1:53 AM33.1 °F19.9 °F59 %30.05 in10.0 miWest (270°)10.4 mphClear
2:53 AM34.0 °F19.0 °F54 %30.04 in10.0 miWSW (250°)13.8 mphClear
3:53 AM30.9 °F19.9 °F64 %30.05 in10.0 miWest (270°)12.7 mphClear
4:53 AM30.9 °F19.0 °F61 %30.06 in10.0 miWest (270°)11.5 mphClear
5:53 AM32.0 °F19.0 °F59 %30.09 in10.0 miWest (270°)13.8 mphClear
6:53 AM28.9 °F17.1 °F61 %30.14 in10.0 miWSW (250°)8.1 mphClear
7:53 AM35.1 °F19.0 °F52 %30.15 in10.0 miWNW (290°)11.5 mphClear
8:53 AM43.0 °F19.0 °F38 %30.19 in10.0 miWest (270°)9.2 mphClear
9:53 AM48.9 °F17.1 °F28 %30.20 in10.0 miWest (280°)11.5 mphClear
10:53 AM55.9 °F12.9 °F18 %30.19 in10.0 miNW (310°)8.1 mphClear
11:53 AM61.0 °F10.9 °F14 %30.15 in10.0 miNNE (30°)9.2 mphClear
12:53 PM63.0 °F7.0 °F11 %30.14 in10.0 miNE (50°)17.3 mph23.0 mphClear
1:53 PM64.0 °F7.0 °F11 %30.14 in10.0 miNE (50°)15.0 mph23.0 mphClear
2:53 PM64.0 °F5.0 °F10 %30.14 in10.0 miNE (50°)12.7 mphClear
3:53 PM63.0 °F6.1 °F11 %30.16 in10.0 miENE (60°)8.1 mphClear
4:53 PM57.0 °F10.9 °F16 %30.19 in10.0 miEast (90°)6.9 mphClear
5:53 PM50.0 °F10.9 °F21 %30.22 in10.0 miEast (100°)5.8 mphClear
6:53 PM48.0 °F10.9 °F22 %30.25 in10.0 miCalmClear
7:53 PM44.1 °F10.9 °F26 %30.26 in10.0 miENE (60°)3.5 mphClear
8:53 PM37.0 °F12.9 °F37 %30.26 in10.0 miCalmClear
10:53 PM33.1 °F15.1 °F48 %30.25 in10.0 miCalmClear
11:53 PM32.0 °F15.1 °F50 %30.23 in10.0 miWest (270°)5.8 mphClear
Hourly data recorded from KTCC, located 30.91 miles away from Newkirk, New Mexico







STORIES FROM OUR PARTNERS